User: anonymous   Login
Location: Caltech
(34.1382°N, 118.1253°W)
Time: 10:03:59
(UTC-08:00)
Language:

ITAMSAT 1 - Orbit

View from above orbital plane
View from above orbital plane
View from above satellite
View from above satellite

Ground track
Ground track

The orbit data is extracted from the following two-line orbital elements,

1 22826U 93061D   17057.13665696  .00000001  00000-0  18039-4 0  9997
2 22826  98.7922  21.5350 0007910 289.3123  70.7203 14.30314565221703
Epoch (UTC): 26 February 2017 03:16:47
Eccentricity: 0.0007910
inclination: 98.7922°
perigee height: 785 km
apogee height: 796 km
right ascension of ascending node: 21.5350°
argument of perigee: 289.3123°
revolutions per day: 14.30314565
mean anomaly at epoch: 70.7203°
orbit number at epoch: 22170

The dashed part of the orbit path shows where the satellite is in the earth's shadow,  

DLR